Zurück zum Katalog

DIRECTV 12

AktivKommunikationGEO
NORAD 36131·PAYLOAD·🇺🇸 United States

Gestartet Dec 29, 2009 von Baikonur Cosmodrome

Loading…

TLE

AktuellSource: Space-Track

Epoche: Sep 14, 2026, 13:18 UTC

1 36131U 09075A   26257.55477748 -.00000111  00000-0  00000-0 0  9998
2 36131   0.0184   8.3271 0000414  83.6093 358.5927  1.00270903 47459

Verfolge DIRECTV 12 in Echtzeit mit AllMySat

Download on the App Store